Regional Weather Roundup
Issued by NWS State College, PA

Home | Current Version | Previous Version | Graphics & Text | Print | Product List | Glossary On
Versions: 1 2 3 4 5 6 7 8 9 10 11 12 13 14 15 16 17 18 19 20 21 22 23 24 25 26 27 28 29 30 31 32 33 34 35 36 37 38 39 40 41 42 43 44 45 46 47 48 49 50
000
ASUS41 KCTP 221910
RWRCTP

REGIONAL WEATHER ROUNDUP
NATIONAL WEATHER SERVICE STATE COLLEGE PA
200 PM EST MON DEC 22 2014

Note: "fair" indicates few or no clouds below 12,000 feet with no
significant weather and/or obstructions to visibility.

* = STATION THAT DOES NOT REPORT PRECIPITATION /E.G. RAIN...SNOW...ETC/
    THUNDER OR FOG.

PAZ002>004-007>009-013>016-020>023-029>032-222000-
WESTERN PENNSYLVANIA

CITY           SKY/WX    TMP DP  RH WIND       PRES   REMARKS
ERIE           PTSUNNY   41  26  55 SE6       30.03F
MEADVILLE      PTSUNNY   37  26  64 VRB6      30.01F
FRANKLIN*      CLOUDY    34  25  69 SE9       30.04F
NEW CASTLE       N/A     40  30  67 E10       30.02F
BEAVER COUNTY  SUNNY     41  30  65 E6        30.01F
BUTLER*        SUNNY     39  28  65 E9        30.04F
PITTSBURGH INT MOSUNNY   43  30  60 E8        30.01F
PITTSBURGH     SUNNY     47  29  49 E6        30.01F
INDIANA*       CLOUDY    39  28  65 SE10G17   30.09F
LATROBE        MOSUNNY   41  30  65 SE13      30.05F
WASHINGTON CO* NOT AVBL
$$

PAZ004>006-010>012-017>019-024>028-033>037-041-042-045-046-049>053-222000-
CENTRAL PENNSYLVANIA

CITY           SKY/WX    TMP DP  RH WIND       PRES   REMARKS
BRADFORD       PTSUNNY   32  24  72 SE8       30.04F
DUBOIS         CLOUDY    33  25  72 SE10      30.05F
CLEARFIELD     CLOUDY    35  25  66 SE6       30.10F
JOHNSTOWN      CLOUDY    30  23  75 S13G20    30.05F
ALTOONA        CLOUDY    32  24  72 S7        30.14F
STATE COLLEGE  CLOUDY    32  23  69 CALM      30.15S
WILLIAMSPORT   CLOUDY    35  25  66 CALM      30.19F
SELINSGROVE    CLOUDY    35  26  69 CALM      30.21F
FT INDIANTOWN  NOT AVBL
CAPITAL CITY   CLOUDY    34  26  72 CALM      30.21F
HARRISBURG     CLOUDY    34  26  72 CALM      30.21F
YORK           CLOUDY    33  26  75 N3        30.19F HAZE
$$

PAZ038>040-043-044-047-048-054-055-060>062-067>071-222000-
EASTERN PENNSYLVANIA

CITY           SKY/WX    TMP DP  RH WIND       PRES   REMARKS
SCRANTON       MOSUNNY   40  28  62 S9        30.17F
MOUNT POCONO   FOG       32  30  92 SE8       30.15F VSB 1/4
ALLENTOWN      CLOUDY    41  31  67 VRB3      30.22F
QUAKERTOWN*    CLOUDY    41  32  70 E3        30.22F
READING        CLOUDY    41  31  67 S6        30.20F
LANCASTER      CLOUDY    37  29  72 CALM      30.20F
COATESVILLE    MOCLDY    39  34  81 CALM      30.19F
POTTSTOWN      CLOUDY    41  31  67 E3        30.21F
BLUE BELL      PTSUNNY   45  34  65 E3        30.20F
DOYLESTOWN     CLOUDY    41  34  76 VRB3      30.21F
WILLOW GROVE   NOT AVBL
NORTH PHILA    CLOUDY    45  33  63 E8        30.23F
PHILADELPHIA   CLOUDY    44  33  65 N3        30.22F
$$


USA.gov is the U.S. government's official web portal to all federal, state and local government web resources and services.